Total_Precipitation_Accumulation
0.06 0.16 0.40 0.66 1.33 1.44 1.07 0.61 0.45 0.37 0.38 0.42 0.48 0.46 0.48 0.59 0.77 1.37 1.06 0.66 0.57 0.66 0.89 1.43 1.70 1.65 1.63 1.63 1.59 1.65 1.66 1.63 1.76 1.81 1.84 1.72 1.65 1.78 1.84 1.91 1.89 2.06 2.03 1.78 1.66 1.46 1.32 1.33 1.34
0.12 0.23 0.51 0.92 1.36 1.20 0.95 0.49 0.36 0.33 0.31 0.42 0.48 0.40 0.35 0.40 0.31 0.38 0.57 0.60 0.53 0.54 0.65 1.01 1.40 1.45 1.42 1.39 1.40 1.43 1.40 1.38 1.54 1.64 1.68 1.68 1.64 1.79 1.87 1.85 1.86 2.07 1.92 1.76 1.59 1.46 1.28 1.19 1.20
0.19 0.32 0.66 1.09 0.85 0.65 0.59 0.34 0.31 0.36 0.44 0.62 0.72 0.49 0.40 0.53 0.38 0.33 0.35 0.36 0.42 0.45 0.50 0.76 1.11 1.21 1.27 1.27 1.37 1.31 1.19 1.23 1.41 1.53 1.59 1.64 1.69 1.81 1.88 1.83 1.88 2.04 2.04 1.86 1.64 1.49 1.27 1.20 1.16
0.23 0.39 0.67 0.72 0.36 0.26 0.32 0.24 0.30 0.40 0.68 0.80 0.83 0.68 0.54 0.50 0.38 0.33 0.26 0.30 0.38 0.43 0.49 0.67 0.93 1.00 1.10 1.15 1.33 1.27 1.20 1.20 1.32 1.46 1.47 1.51 1.60 1.83 1.92 1.86 1.94 1.97 1.93 1.74 1.57 1.40 1.22 1.11 1.10
0.24 0.48 0.78 0.49 0.16 0.14 0.16 0.14 0.21 0.34 0.59 0.80 0.81 0.88 0.87 0.72 0.51 0.38 0.30 0.33 0.37 0.43 0.52 0.56 0.82 0.93 1.08 1.21 1.32 1.32 1.21 1.12 1.21 1.30 1.29 1.41 1.63 1.87 2.02 2.01 2.00 1.95 1.88 1.62 1.43 1.31 1.16 1.06 1.10
0.26 0.49 0.55 0.31 0.16 0.11 0.12 0.13 0.22 0.41 0.63 0.79 0.94 1.04 0.95 0.76 0.56 0.44 0.36 0.41 0.46 0.40 0.51 0.58 0.77 0.86 0.97 1.15 1.28 1.36 1.22 1.14 1.22 1.37 1.35 1.44 1.66 1.88 2.04 2.13 2.16 2.03 1.88 1.56 1.36 1.18 1.03 1.01 1.08
0.21 0.34 0.33 0.21 0.15 0.11 0.11 0.17 0.26 0.41 0.53 0.82 1.10 1.15 0.93 0.85 0.70 0.50 0.52 0.51 0.81 0.54 0.52 0.57 0.67 0.85 0.96 1.14 1.29 1.35 1.32 1.26 1.37 1.53 1.45 1.51 1.69 1.91 2.02 2.17 2.20 2.02 1.86 1.57 1.33 1.11 0.97 1.01 1.03
0.14 0.19 0.19 0.16 0.09 0.08 0.10 0.17 0.27 0.39 0.66 0.93 0.96 1.04 1.05 0.80 0.74 0.73 0.77 0.75 0.93 0.83 0.66 0.64 0.66 0.88 1.03 1.09 1.20 1.36 1.34 1.32 1.39 1.52 1.55 1.79 1.91 1.98 2.04 2.23 2.26 2.03 1.81 1.49 1.34 1.16 1.01 1.02 1.01
0.12 0.21 0.21 0.13 0.05 0.07 0.12 0.21 0.28 0.34 0.55 0.73 0.81 0.78 0.61 0.60 0.76 0.88 0.98 1.06 1.14 1.12 1.03 0.98 0.87 0.86 1.03 1.06 1.15 1.49 1.55 1.53 1.57 1.64 1.89 2.19 2.47 2.50 2.59 2.55 2.48 2.28 1.96 1.75 1.60 1.43 1.23 1.17 1.10
0.09 0.15 0.11 0.05 0.03 0.06 0.11 0.20 0.32 0.41 0.71 1.06 1.09 1.12 0.78 0.81 0.98 1.06 1.08 1.08 1.24 1.37 1.33 1.45 1.22 1.02 1.02 1.02 1.48 2.05 2.03 2.00 2.06 2.20 2.32 2.65 2.88 3.16 2.76 2.99 3.03 2.91 2.68 2.39 2.25 2.16 1.73 1.33 1.15
0.04 0.05 0.03 0.02 0.02 0.03 0.05 0.11 0.16 0.36 0.78 1.22 1.27 1.24 1.03 1.02 1.14 1.26 1.33 1.45 1.59 1.78 1.59 1.47 1.53 1.47 1.47 1.58 1.70 1.96 2.34 2.43 2.45 2.49 2.51 2.77 2.69 2.83 2.83 3.17 3.56 3.46 2.95 2.54 2.61 2.58 2.00 1.82 2.00
0.02 0.02 0.02 0.02 0.02 0.03 0.05 0.12 0.22 0.37 0.80 1.08 0.98 0.86 0.90 1.11 1.30 1.49 1.85 2.08 2.27 2.40 2.35 2.35 2.20 2.11 2.13 2.00 1.83 1.85 2.05 2.09 2.10 2.22 2.31 2.51 2.84 2.92 3.05 3.34 3.30 3.15 2.92 3.00 2.76 2.81 2.55 2.34 2.16
0.02 0.02 0.03 0.02 0.02 0.03 0.07 0.17 0.30 0.42 0.70 0.68 0.59 0.66 1.06 1.32 1.55 1.87 2.11 2.33 2.55 2.92 3.18 3.71 3.59 3.01 2.69 2.43 2.15 1.82 1.95 1.80 1.62 1.79 2.11 2.28 2.51 2.78 2.94 2.84 2.81 2.48 2.53 2.71 2.75 2.44 2.61 2.57 2.53
0.02 0.02 0.04 0.05 0.04 0.06 0.10 0.15 0.39 0.49 0.59 0.67 0.64 0.93 1.39 1.87 2.07 2.32 2.62 3.02 3.33 3.77 3.82 4.02 4.56 3.93 3.20 2.68 2.36 2.10 1.89 1.92 1.78 1.91 1.91 2.14 2.35 2.42 2.48 2.42 2.48 2.32 2.36 2.44 2.39 2.34 2.63 2.74 2.66
0.02 0.05 0.13 0.12 0.09 0.09 0.14 0.30 0.50 0.63 0.65 0.86 0.93 1.15 1.69 2.33 2.33 2.62 2.93 3.42 3.88 4.35 4.48 4.57 4.90 4.60 4.07 3.47 2.89 2.42 2.23 1.99 1.99 2.09 1.87 1.93 2.09 2.13 2.20 2.24 2.22 2.24 2.15 2.13 2.07 2.12 2.33 2.33 2.30
0.04 0.12 0.27 0.23 0.12 0.13 0.20 0.63 0.80 0.69 0.67 0.97 1.19 1.40 1.87 2.52 2.58 2.89 3.34 3.88 4.59 5.02 5.26 5.29 5.07 5.07 4.69 4.01 3.41 3.01 2.75 2.42 2.15 2.03 1.89 1.73 1.81 1.87 1.98 1.90 1.88 1.86 1.78 1.76 1.95 2.01 2.16 2.31 2.36
0.09 0.15 0.26 0.26 0.19 0.16 0.24 0.70 0.74 0.50 0.66 0.95 1.25 1.55 1.85 2.19 2.67 3.25 3.74 4.32 5.25 6.19 6.62 6.41 5.76 5.36 4.89 4.30 3.78 3.63 3.44 3.01 2.49 2.30 2.12 1.94 1.75 1.71 1.82 1.85 1.89 1.60 1.60 1.64 1.58 1.90 2.06 2.33 2.39
0.06 0.10 0.21 0.30 0.23 0.27 0.36 0.47 0.59 0.64 0.81 1.02 1.23 1.41 1.68 1.99 2.40 3.09 3.67 4.36 5.33 6.53 7.23 7.13 6.48 5.67 4.98 4.63 4.19 4.02 3.69 3.22 2.65 2.42 2.32 2.04 1.90 1.70 1.73 1.65 1.60 1.41 1.55 1.75 1.87 2.28 2.21 2.15 2.17
0.05 0.08 0.17 0.26 0.22 0.31 0.39 0.49 0.64 0.80 1.02 1.04 1.13 1.23 1.48 1.78 2.17 2.84 3.53 4.10 4.77 5.54 6.12 5.99 5.39 4.92 4.38 3.91 3.38 3.31 3.12 2.81 2.52 2.24 1.98 1.94 1.88 1.72 1.80 1.71 1.82 1.54 1.57 1.63 1.63 1.86 2.00 1.91 1.91
0.06 0.09 0.15 0.21 0.18 0.19 0.32 0.59 0.74 0.81 0.97 0.93 0.94 1.00 1.20 1.55 2.17 2.92 3.52 3.73 3.74 4.03 4.28 3.78 3.58 3.59 3.27 2.99 2.92 2.85 2.72 2.42 2.20 2.05 1.99 1.64 1.64 1.63 1.58 1.80 1.71 1.63 1.74 1.72 1.72 1.88 2.00 1.93 1.97
0.09 0.11 0.12 0.19 0.19 0.25 0.40 0.75 0.97 0.89 0.89 0.77 0.74 0.96 1.43 1.86 2.29 2.80 2.97 2.96 2.84 2.83 2.81 2.58 2.52 2.85 2.86 2.81 2.77 2.75 2.73 2.59 2.34 2.03 1.98 1.65 1.48 1.50 1.61 1.64 1.74 1.81 1.54 1.73 1.86 1.82 1.89 1.94 1.87
0.08 0.07 0.05 0.07 0.14 0.37 0.55 0.97 1.14 1.06 1.02 0.77 0.81 1.18 1.69 2.01 2.27 2.24 1.83 1.70 1.85 1.94 2.05 2.30 2.38 2.52 2.47 2.56 2.41 2.23 2.04 1.92 1.84 1.80 1.86 1.86 1.63 1.51 1.44 1.51 1.76 1.88 1.64 1.83 1.50 1.61 1.86 1.97 1.81
0.05 0.05 0.04 0.07 0.17 0.42 0.71 1.14 1.35 1.15 0.97 0.76 0.75 0.82 1.20 1.36 1.32 1.15 0.98 1.02 1.26 1.53 1.78 2.18 2.27 2.31 2.25 2.22 2.26 2.29 2.13 2.09 1.99 1.94 2.11 2.09 2.07 1.84 1.52 1.53 1.75 1.89 1.83 1.87 1.74 1.95 1.79 1.71 1.68
0.05 0.06 0.12 0.22 0.40 0.87 0.94 1.03 1.30 1.12 0.90 0.76 0.63 0.59 0.81 0.84 0.68 0.72 0.78 0.96 1.21 1.39 1.50 1.76 1.91 2.08 2.14 2.19 2.28 2.24 2.20 2.26 2.11 1.99 1.93 1.88 1.93 1.86 1.73 1.72 1.92 1.92 1.87 1.91 1.86 1.89 1.79 1.76 1.77
0.04 0.07 0.28 0.63 0.93 1.07 0.80 0.94 1.24 0.87 0.62 0.54 0.44 0.37 0.41 0.49 0.56 0.72 0.80 0.98 1.08 1.19 1.23 1.38 1.47 1.66 1.85 1.97 2.05 2.09 2.15 2.21 2.07 1.98 1.87 1.81 1.69 1.64 1.73 1.82 2.01 1.91 1.87 1.82 1.89 1.88 1.85 1.90 1.95
0.05 0.05 0.13 0.25 0.37 0.58 0.75 1.13 1.22 0.83 0.52 0.38 0.32 0.32 0.32 0.39 0.46 0.51 0.60 0.66 0.77 0.92 1.16 1.35 1.33 1.34 1.40 1.48 1.66 1.82 1.86 1.92 1.89 1.98 1.80 1.68 1.57 1.56 1.71 1.80 1.74 1.72 1.75 1.65 1.86 1.78 1.74 1.81 1.86
0.05 0.04 0.05 0.07 0.11 0.36 0.80 1.07 0.99 0.69 0.51 0.41 0.41 0.43 0.42 0.44 0.49 0.43 0.44 0.56 0.65 0.70 0.83 1.05 1.11 1.14 1.19 1.25 1.38 1.46 1.51 1.64 1.83 1.80 1.62 1.47 1.50 1.52 1.55 1.53 1.55 1.59 1.63 1.74 1.90 1.81 1.78 1.88 1.78
0.05 0.05 0.05 0.07 0.13 0.28 0.63 1.13 1.29 0.95 0.69 0.55 0.59 0.54 0.47 0.43 0.43 0.49 0.50 0.54 0.62 0.63 0.75 0.92 1.07 1.14 1.16 1.17 1.21 1.16 1.31 1.42 1.58 1.61 1.56 1.47 1.40 1.50 1.55 1.53 1.55 1.57 1.51 1.59 1.77 1.69 1.79 1.87 1.84
0.06 0.06 0.07 0.09 0.10 0.18 0.46 0.75 0.75 0.80 0.67 0.50 0.54 0.54 0.49 0.42 0.43 0.54 0.53 0.54 0.52 0.52 0.62 0.76 0.95 1.06 1.01 1.05 1.09 1.17 1.26 1.43 1.49 1.45 1.47 1.46 1.45 1.52 1.56 1.59 1.67 1.63 1.59 1.64 1.73 1.63 1.76 1.82 1.92
0.08 0.09 0.10 0.11 0.12 0.14 0.24 0.41 0.46 0.51 0.60 0.71 0.63 0.62 0.62 0.57 0.48 0.54 0.56 0.53 0.45 0.50 0.60 0.69 0.86 0.99 1.05 1.05 1.12 1.23 1.28 1.36 1.43 1.38 1.45 1.58 1.59 1.64 1.63 1.67 1.77 1.70 1.72 1.79 1.69 1.66 1.73 1.80 1.83